Del Rio, TX

4:26 PM CDT on October 23, 2017 (GMT -0500)
Del Rio International

Weather History for KDRT - March, 2013

Change the Weather History Date:

Tuesday, March 5, 2013

  Actual Average Record
Temperature  
Mean Temperature 60 °F 61 °F  
Max Temperature 72 °F 73 °F 98 °F (1991)
Min Temperature 47 °F 50 °F 27 °F (1917)
Degree Days  
Heating Degree Days 5 5  
Month to date heating degree days 27 29  
Since 1 July heating degree days 920 1265  
Cooling Degree Days 0 2  
Month to date cooling degree days 7 8  
Year to date cooling degree days 46 27  
Growing Degree Days 10 (Base 50)    
Moisture  
Dew Point 25 °F    
Average Humidity 31    
Maximum Humidity 46    
Minimum Humidity 15    
Precipitation  
Precipitation 0.00 in 0.04 in 0.82 in (2005)
Month to date precipitation 0.00 0.20  
Year to date precipitation 1.33 1.80  
Sea Level Pressure  
Sea Level Pressure 30.21 in    
Wind  
Wind Speed 11 mph (NNW)    
Max Wind Speed 29 mph    
Max Gust Speed 44 mph    
Visibility 10 miles    
Events      
T = Trace of Precipitation, MM = Missing Value Source: NWS Daily Summary

Daily Weather History Graph

Daily Weather History Graph

Search for Another Location

Airport or City:

Trip Planner

Search our weather history database for the weather conditions in past years. The results will help you decide how hot, cold, wet, or windy it might be!

Date:

Astronomy

Mar. 05, 2013 Rise Set
Actual Time 7:04 AM CST 6:46 PM CST
Civil Twilight 6:40 AM CST 7:09 PM CST
Nautical Twilight 6:13 AM CST 7:37 PM CST
Astronomical Twilight 5:45 AM CST 8:04 PM CST
Moon 1:58 AM CST (3/5) 12:46 PM CST (3/5)
Length of Visible Light 12h 29m
Length of Day
11h 41m
Last Quarter, 40% of the Moon is Illuminated
Mar 5
Last Quarter
Mar 11
New
Mar 19
First Quarter
Mar 27
Full
Apr 2
Last Quarter

Hourly Weather History & Observations

Time (CST) Temp. Dew Point Humidity Pressure Visibility Wind Dir Wind Speed Gust Speed Precip Events Conditions
1:53 AM 66.2 °F 28.4 °F 24% 29.82 in 10.0 mi North 9.2 mph - N/A   Partly Cloudy
2:53 AM 68.0 °F 26.1 °F 21% 29.81 in 10.0 mi NW 8.1 mph - N/A   Mostly Cloudy
3:53 AM 71.1 °F 21.9 °F 16% 29.86 in 10.0 mi NNW 13.8 mph 19.6 mph N/A   Clear
4:14 AM 64.4 °F 37.4 °F 37% 29.96 in 7.0 mi North 18.4 mph 38.0 mph N/A   Mostly Cloudy
4:38 AM 60.8 °F 37.4 °F 42% 29.99 in 10.0 mi North 24.2 mph 33.4 mph N/A   Scattered Clouds
4:53 AM 60.1 °F 37.0 °F 42% 29.98 in 9.0 mi North 18.4 mph 33.4 mph N/A   Partly Cloudy
5:53 AM 54.0 °F 33.1 °F 45% 30.12 in 10.0 mi NNW 21.9 mph 32.2 mph N/A   Clear
6:53 AM 53.1 °F 30.9 °F 43% 30.20 in 10.0 mi NNW 18.4 mph 26.5 mph N/A   Clear
7:53 AM 53.1 °F 28.9 °F 40% 30.27 in 10.0 mi NNW 16.1 mph 26.5 mph N/A   Clear
8:53 AM 53.1 °F 27.0 °F 37% 30.34 in 10.0 mi NNW 15.0 mph 26.5 mph N/A   Clear
9:53 AM 55.0 °F 25.0 °F 31% 30.37 in 10.0 mi NNW 18.4 mph 26.5 mph N/A   Clear
10:53 AM 57.0 °F 23.0 °F 27% 30.38 in 10.0 mi NNW 18.4 mph 27.6 mph N/A   Clear
11:53 AM 59.0 °F 21.0 °F 23% 30.36 in 10.0 mi NNW 13.8 mph 25.3 mph N/A   Clear
12:53 PM 61.0 °F 19.9 °F 21% 30.35 in 10.0 mi NNW 16.1 mph 25.3 mph N/A   Clear
1:53 PM 64.0 °F 21.0 °F 19% 30.32 in 10.0 mi NW 16.1 mph 21.9 mph N/A   Clear
2:53 PM 66.0 °F 21.9 °F 19% 30.28 in 10.0 mi WNW 12.7 mph 18.4 mph N/A   Clear
3:53 PM 68.0 °F 23.0 °F 18% 30.27 in 10.0 mi WNW 9.2 mph - N/A   Clear
4:53 PM 68.0 °F 23.0 °F 18% 30.26 in 10.0 mi WNW 5.8 mph - N/A   Clear
5:53 PM 68.0 °F 21.9 °F 17% 30.26 in 10.0 mi North 10.4 mph - N/A   Clear
6:53 PM 64.0 °F 21.9 °F 20% 30.26 in 10.0 mi NW 3.5 mph - N/A   Clear
7:53 PM 60.1 °F 23.0 °F 24% 30.29 in 10.0 mi NW 4.6 mph - N/A   Clear
8:53 PM 55.9 °F 23.0 °F 28% 30.30 in 10.0 mi North 4.6 mph - N/A   Clear
9:53 PM 52.0 °F 21.9 °F 31% 30.31 in 10.0 mi North 5.8 mph - N/A   Clear
10:53 PM 55.0 °F 17.1 °F 23% 30.32 in 10.0 mi NE 9.2 mph - N/A   Clear
11:53 PM 48.0 °F 19.0 °F 32% 30.31 in 10.0 mi South 3.5 mph - N/A   Clear